Home > Weather > Haltern am See > Past weeks

Flag for Germany Past Weather in Haltern am See, North Rhine-Westphalia, Germany — Yesterday and Last 2 Weeks

Now
61 °F

Passing clouds.


Feels Like: 61 °F
Forecast: 53 / 62 °F
Wind: 8 mph from South

Location: Muenster / Osnabrueck

Current Time: Jul 1, 2016 at 4:40:10 AM

Latest Report: Jul 1, 2016 at 4:20 AM


Visibility: N/A

Pressure: 29.89 "Hg

Humidity: 94%

Dew Point: 59 °F

Location of Haltern am SeeLocation

Past Weather in Haltern am See — Graph

°F

Haltern am See Temperature Yesterday

Maximum temperature yesterday: 68 °F (at 6:20 PM)
Minimum temperature yesterday: 59 °F (at 12:50 AM)
Average temperature yesterday: 64 °F

High & Low Weather Summary for the Past Weeks

 TemperatureHumidityPressure
High91 °F (Jun 23, 5:20 PM)100% (Jun 16, 5:20 AM)30.24 "Hg (Jun 16, 5:20 AM)
Low48 °F (Jun 20, 1:50 AM)43% (Jun 23, 3:50 PM)29.56 "Hg (Jun 17, 3:20 AM)
Average63 °F80%29.98 "Hg
* Reported Jun 16 3:20 AM — Jul 1 3:20 AM, Haltern am See, Weather by CustomWeather, © 2016

Note: Actual official high and low records may vary slightly from our data, if they occured in-between our weather recording intervals... More about our weather records

Advertising

Haltern am See Weather History for the Previous 24 Hours

Scroll right to see more
 ConditionsComfort  
Time TempWeatherWind HumidityBarometerVisibility
3:20 AM
Fri, Jul 1
61 °FPassing clouds.7 mph94%29.89 "HgN/A
2:50 AM61 °FPassing clouds.6 mph94%29.89 "HgN/A
2:20 AM63 °FPartly cloudy.7 mph88%29.89 "HgN/A
1:50 AM63 °FPassing clouds.8 mph88%29.89 "HgN/A
1:20 AM63 °FPassing clouds.7 mph88%29.89 "HgN/A
12:50 AM63 °FPartly cloudy.6 mph94%29.89 "HgN/A
12:20 AM63 °FPassing clouds.6 mph88%29.89 "HgN/A
11:50 PM
Thu, Jun 30
63 °FPassing clouds.8 mph88%29.89 "HgN/A
11:20 PM64 °FPassing clouds.9 mph83%29.89 "HgN/A
10:50 PM64 °FBroken clouds.9 mph83%29.89 "HgN/A
10:20 PM64 °FPartly sunny.9 mph83%29.89 "HgN/A
9:50 PM66 °FBroken clouds.9 mph78%29.89 "HgN/A
9:20 PM66 °FPartly sunny.8 mph73%29.89 "HgN/A
8:50 PM68 °FPartly sunny.9 mph73%29.89 "HgN/A
8:20 PM68 °FPartly sunny.7 mph73%29.89 "HgN/A
7:50 PM68 °FPartly sunny.8 mph69%29.89 "HgN/A
7:20 PM68 °FLight rain. Partly sunny.10 mph69%29.89 "HgN/A
6:50 PM68 °FPartly sunny.10 mph69%29.89 "HgN/A
6:20 PM68 °FPartly sunny.12 mph69%29.89 "HgN/A
5:50 PM66 °FPartly sunny.8 mph73%29.89 "HgN/A
5:20 PM66 °FLight rain. Partly sunny.9 mph73%29.89 "HgN/A
4:50 PM66 °FLight rain. Broken clouds.13 mph68%29.89 "HgN/A
4:20 PM66 °FBroken clouds.10 mph68%29.89 "HgN/A
3:50 PM66 °FLight rain. Broken clouds.9 mph73%29.89 "HgN/A
3:20 PM66 °FBroken clouds.10 mph68%29.89 "HgN/A
2:50 PM66 °FBroken clouds.13 mph64%29.89 "HgN/A
2:20 PM66 °FLight rain. Broken clouds.12 mph68%29.89 "HgN/A
1:50 PM66 °FBroken clouds.13 mph64%29.89 "HgN/A
1:20 PM66 °FBroken clouds.13 mph64%29.89 "HgN/A
12:50 PM64 °FLight rain. Broken clouds.13 mph73%29.89 "HgN/A
12:20 PM64 °FBroken clouds.12 mph73%29.89 "HgN/A
11:50 AM63 °FPartly sunny.10 mph77%29.89 "HgN/A
11:20 AM64 °FPartly sunny.13 mph73%29.89 "HgN/A
10:50 AM63 °FPartly sunny.12 mph77%29.89 "HgN/A
10:20 AM63 °FPartly sunny.12 mph77%29.89 "HgN/A
9:50 AM63 °FBroken clouds.12 mph77%29.86 "HgN/A
9:20 AM61 °FLight rain. Broken clouds.13 mph83%29.86 "HgN/A
8:50 AM61 °FBroken clouds.9 mph83%29.86 "HgN/A
8:20 AM61 °FLight rain. Partly sunny.8 mph83%29.86 "HgN/A
7:50 AM61 °FPartly sunny.7 mph77%29.86 "HgN/A
7:20 AM61 °FPartly sunny.7 mph77%29.86 "HgN/A
6:50 AM61 °FPartly sunny.6 mph77%29.86 "HgN/A
6:20 AM61 °FPartly sunny.6 mph77%29.86 "HgN/A
5:50 AM63 °FPassing clouds.7 mph73%29.83 "HgN/A
5:20 AM63 °FPassing clouds.8 mph73%29.83 "HgN/A
4:50 AM63 °FPassing clouds.8 mph73%29.83 "HgN/A
4:20 AM61 °FPassing clouds.6 mph72%29.83 "HgN/A
Weather by CustomWeather, © 2016

See weather overviewHow to use our weather pages